Time,TemperatureF,DewpointF,PressureIn,WindDirection,WindDirectionDegrees,WindSpeedMPH,WindSpeedGustMPH,Humidity,HourlyPrecipIn,Conditions,Clouds,dailyrainin,SoftwareType,DateUTC
2015-05-22 00:02:00,57.4,49.5,29.95,WSW,248,0.7,2.5,75,0.00,,,0.00,WUHU216HW,2015-05-22 07:02:00,
2015-05-22 00:07:00,57.4,49.5,29.95,WSW,248,2.5,4.7,75,0.00,,,0.00,WUHU216HW,2015-05-22 07:07:00,
2015-05-22 00:12:00,57.2,49.0,29.95,SW,225,2.7,4.7,74,0.00,,,0.00,WUHU216HW,2015-05-22 07:12:00,
2015-05-22 00:17:00,57.2,49.0,29.95,WSW,248,1.8,4.0,74,0.00,,,0.00,WUHU216HW,2015-05-22 07:17:00,
2015-05-22 00:22:00,57.2,49.0,29.95,WSW,248,1.8,5.4,74,0.00,,,0.00,WUHU216HW,2015-05-22 07:22:00,
2015-05-22 00:27:00,57.2,49.3,29.95,West,270,4.3,5.4,75,0.00,,,0.00,WUHU216HW,2015-05-22 07:27:00,
2015-05-22 00:32:00,57.2,49.0,29.95,WSW,248,2.2,4.5,74,0.00,,,0.00,WUHU216HW,2015-05-22 07:32:00,
2015-05-22 00:37:00,57.1,48.8,29.95,West,270,2.7,4.5,74,0.00,,,0.00,WUHU216HW,2015-05-22 07:37:00,
2015-05-22 00:42:00,56.9,49.0,29.95,SW,225,4.0,4.0,75,0.00,,,0.00,WUHU216HW,2015-05-22 07:42:00,
2015-05-22 00:47:00,56.9,48.6,29.95,West,270,1.3,4.0,74,0.00,,,0.00,WUHU216HW,2015-05-22 07:47:00,
2015-05-22 00:52:00,56.9,48.6,29.95,SW,225,4.5,4.5,74,0.00,,,0.00,WUHU216HW,2015-05-22 07:52:00,
2015-05-22 00:57:00,56.9,49.0,29.95,WSW,248,2.5,4.5,75,0.00,,,0.00,WUHU216HW,2015-05-22 07:57:00,
2015-05-22 01:02:00,56.9,49.0,29.95,West,270,2.7,7.4,75,0.00,,,0.00,WUHU216HW,2015-05-22 08:02:00,
2015-05-22 01:07:00,56.7,48.8,29.95,WSW,248,3.8,7.4,75,0.00,,,0.00,WUHU216HW,2015-05-22 08:07:00,
2015-05-22 01:17:00,56.7,48.4,29.95,WSW,248,4.0,4.7,74,0.00,,,0.00,WUHU216HW,2015-05-22 08:17:00,
2015-05-22 01:22:00,56.7,48.4,29.95,SW,225,3.4,4.0,74,0.00,,,0.00,WUHU216HW,2015-05-22 08:22:00,
2015-05-22 01:27:00,56.7,48.4,29.95,West,270,3.6,3.6,74,0.00,,,0.00,WUHU216HW,2015-05-22 08:27:00,
2015-05-22 01:32:00,56.5,48.6,29.95,West,270,2.7,6.9,75,0.00,,,0.00,WUHU216HW,2015-05-22 08:32:00,
2015-05-22 01:37:00,56.7,48.8,29.95,WSW,248,2.7,6.9,75,0.00,,,0.00,WUHU216HW,2015-05-22 08:37:00,
2015-05-22 01:42:00,56.9,49.0,29.95,SW,225,3.8,3.8,75,0.00,,,0.00,WUHU216HW,2015-05-22 08:42:00,
2015-05-22 01:47:00,56.9,49.0,29.94,SSW,203,3.4,3.8,75,0.00,,,0.00,WUHU216HW,2015-05-22 08:47:00,
2015-05-22 01:52:00,56.9,49.0,29.95,West,270,3.8,4.0,75,0.00,,,0.00,WUHU216HW,2015-05-22 08:52:00,
2015-05-22 01:57:00,56.9,49.0,29.94,WSW,248,1.6,4.0,75,0.00,,,0.00,WUHU216HW,2015-05-22 08:57:00,
2015-05-22 02:07:00,56.9,49.0,29.95,WSW,248,3.8,3.8,75,0.00,,,0.00,WUHU216HW,2015-05-22 09:07:00,
2015-05-22 02:12:00,56.9,49.0,29.95,SW,225,1.1,4.0,75,0.00,,,0.00,WUHU216HW,2015-05-22 09:12:00,
2015-05-22 02:17:00,56.9,49.0,29.94,WSW,248,1.1,4.0,75,0.00,,,0.00,WUHU216HW,2015-05-22 09:17:00,
2015-05-22 02:22:00,56.9,49.0,29.95,South,180,4.7,4.7,75,0.00,,,0.00,WUHU216HW,2015-05-22 09:22:00,
2015-05-22 02:27:00,56.9,49.0,29.95,WSW,248,4.0,6.9,75,0.00,,,0.00,WUHU216HW,2015-05-22 09:27:00,
2015-05-22 02:32:00,56.9,49.3,29.95,SW,225,4.7,6.9,76,0.00,,,0.00,WUHU216HW,2015-05-22 09:32:00,
2015-05-22 02:37:00,56.9,49.0,29.95,WSW,248,1.6,4.7,75,0.00,,,0.00,WUHU216HW,2015-05-22 09:37:00,
2015-05-22 02:42:00,56.9,49.0,29.95,WSW,248,2.5,3.4,75,0.00,,,0.00,WUHU216HW,2015-05-22 09:42:00,
2015-05-22 02:47:00,56.9,49.3,29.95,West,270,2.7,3.4,76,0.00,,,0.00,WUHU216HW,2015-05-22 09:47:00,
2015-05-22 02:52:00,56.9,49.3,29.95,WSW,248,1.6,5.4,76,0.00,,,0.00,WUHU216HW,2015-05-22 09:52:00,
2015-05-22 02:57:00,56.7,49.5,29.95,WSW,248,2.0,5.4,77,0.00,,,0.00,WUHU216HW,2015-05-22 09:57:00,
2015-05-22 03:02:00,56.5,49.0,29.95,WSW,248,0.9,5.1,76,0.00,,,0.00,WUHU216HW,2015-05-22 10:02:00,
2015-05-22 03:07:00,56.5,49.0,29.95,WSW,248,1.8,6.3,76,0.00,,,0.00,WUHU216HW,2015-05-22 10:07:00,